When you browse on this site, cookies collect data to enhance your experience and personalize the content and advertising you see.
Visit our Privacy Policy to learn more. By continuing to use the site, you agree to this use of cookies and data.
  • In Belgium
  • List of Countries
  • For 7 days
  • Water Temperature
  • Satellite Maps
  • Weather Map
  • Weather Widgets
  • user-avatar
    Login

    Hourly Weather Biskira

    Today, 21 November, Wednesday

    Time Temperature Precipitation Wind Pressure Humidity
    00:00 +16°C° 0 mm 2 mps 752 mmHg 55%
    01:00 +16°C° 0 mm 1 mps 752 mmHg 56%
    02:00 +15°C° 0 mm 1 mps 752 mmHg 57%
    03:00 +15°C° 0 mm 1 mps 752 mmHg 58%
    04:00 +15°C° 0 mm 1 mps 752 mmHg 58%
    05:00 +14°C° 0 mm 1 mps 753 mmHg 59%
    06:00 +14°C° 0 mm 1 mps 753 mmHg 60%
    07:00 +15°C° 0 mm 1 mps 753 mmHg 54%
    08:00 +18°C° 0 mm 1 mps 754 mmHg 49%
    09:00 +19°C° 0 mm 1 mps 754 mmHg 43%
    10:00 +20°C° 0 mm 1 mps 754 mmHg 40%
    11:00 +21°C° 0 mm 1 mps 754 mmHg 38%
    12:00 +22°C° 0 mm 1 mps 754 mmHg 35%
    13:00 +22°C° 0 mm 1 mps 754 mmHg 34%
    14:00 +21°C° 0 mm 2 mps 754 mmHg 34%
    15:00 +23°C° 0 mm 2 mps 754 mmHg 33%
    16:00 +21°C° 0 mm 2 mps 754 mmHg 36%
    17:00 +20°C° 0 mm 2 mps 754 mmHg 39%
    18:00 +20°C° 0 mm 1 mps 755 mmHg 43%
    19:00 +18°C° 0 mm 2 mps 755 mmHg 43%
    20:00 +18°C° 0 mm 2 mps 756 mmHg 44%
    21:00 +18°C° 0 mm 2 mps 756 mmHg 45%
    22:00 +18°C° 0 mm 2 mps 756 mmHg 45%
    23:00 +17°C° 0 mm 2 mps 756 mmHg 46%

    Tomorrow, 22 November, Thursday

    Time Temperature Precipitation Wind Pressure Humidity
    00:00 +17°C° 0 mm 2 mps 756 mmHg 47%
    01:00 +17°C° 0 mm 2 mps 756 mmHg 47%
    02:00 +17°C° 0 mm 2 mps 756 mmHg 48%
    03:00 +17°C° 0 mm 2 mps 756 mmHg 48%
    04:00 +16°C° 0 mm 2 mps 756 mmHg 48%
    05:00 +16°C° 0 mm 2 mps 756 mmHg 49%
    06:00 +16°C° 0 mm 2 mps 756 mmHg 49%
    07:00 +17°C° 0 mm 2 mps 756 mmHg 45%
    08:00 +18°C° 0 mm 2 mps 756 mmHg 41%
    09:00 +20°C° 0 mm 2 mps 757 mmHg 37%
    10:00 +20°C° 0 mm 2 mps 756 mmHg 35%
    11:00 +21°C° 0 mm 3 mps 756 mmHg 32%
    12:00 +22°C° 0 mm 3 mps 756 mmHg 30%
    13:00 +22°C° 0 mm 3 mps 756 mmHg 30%
    14:00 +22°C° 0 mm 3 mps 755 mmHg 29%
    15:00 +22°C° 0 mm 4 mps 755 mmHg 29%
    16:00 +21°C° 0 mm 3 mps 755 mmHg 32%
    17:00 +20°C° 0 mm 3 mps 755 mmHg 35%
    18:00 +19°C° 0 mm 3 mps 756 mmHg 38%
    19:00 +19°C° 0 mm 3 mps 756 mmHg 39%
    20:00 +18°C° 0 mm 3 mps 756 mmHg 40%
    21:00 +18°C° 0 mm 3 mps 756 mmHg 41%
    22:00 +17°C° 0 mm 3 mps 756 mmHg 41%
    23:00 +17°C° 0 mm 2 mps 756 mmHg 41%

    Day after tomorrow, 23 November, Friday

    Time Temperature Precipitation Wind Pressure Humidity
    00:00 +17°C° 0 mm 2 mps 756 mmHg 42%
    01:00 +16°C° 0 mm 2 mps 756 mmHg 42%
    02:00 +16°C° 0 mm 2 mps 756 mmHg 42%
    03:00 +16°C° 0 mm 2 mps 756 mmHg 43%
    04:00 +15°C° 0 mm 2 mps 756 mmHg 43%
    05:00 +15°C° 0 mm 2 mps 756 mmHg 44%
    06:00 +15°C° 0 mm 1 mps 756 mmHg 45%
    07:00 +16°C° 0 mm 1 mps 756 mmHg 41%
    08:00 +18°C° 0 mm 1 mps 756 mmHg 37%
    09:00 +19°C° 0 mm 2 mps 756 mmHg 34%
    10:00 +20°C° 0 mm 2 mps 756 mmHg 33%
    11:00 +21°C° 0 mm 2 mps 756 mmHg 31%
    12:00 +21°C° 0 mm 2 mps 755 mmHg 30%
    13:00 +23°C° 0 mm 2 mps 755 mmHg 30%
    14:00 +23°C° 0 mm 2 mps 754 mmHg 30%
    15:00 +23°C° 0 mm 2 mps 754 mmHg 30%
    16:00 +21°C° 0 mm 2 mps 754 mmHg 33%
    17:00 +20°C° 0 mm 2 mps 755 mmHg 36%
    18:00 +20°C° 0 mm 1 mps 755 mmHg 39%
    19:00 +20°C° 0 mm 1 mps 755 mmHg 40%
    20:00 +20°C° 0 mm 1 mps 755 mmHg 40%
    21:00 +19°C° 0 mm 1 mps 756 mmHg 40%
    22:00 +19°C° 0 mm 1 mps 755 mmHg 42%
    23:00 +18°C° 0 mm 1 mps 755 mmHg 44%

    24 November, Saturday

    Time Temperature Precipitation Wind Pressure Humidity
    00:00 +16°C° 0 mm 0 mps 755 mmHg 46%
    01:00 +18°C° 0 mm 1 mps 755 mmHg 45%
    02:00 +18°C° 0 mm 1 mps 754 mmHg 45%
    03:00 +18°C° 0 mm 1 mps 754 mmHg 45%
    04:00 +18°C° 0 mm 1 mps 754 mmHg 45%
    05:00 +18°C° 0 mm 1 mps 754 mmHg 45%
    06:00 +18°C° 0 mm 1 mps 754 mmHg 45%
    07:00 +19°C° 0 mm 1 mps 754 mmHg 42%
    08:00 +20°C° 0 mm 1 mps 755 mmHg 39%
    09:00 +21°C° 0 mm 1 mps 755 mmHg 36%
    10:00 +22°C° 0 mm 1 mps 754 mmHg 34%
    11:00 +22°C° 0 mm 1 mps 753 mmHg 33%
    12:00 +23°C° 0 mm 2 mps 753 mmHg 32%
    13:00 +23°C° 0.1 mm 2 mps 753 mmHg 34%
    14:00 +22°C° 0.1 mm 3 mps 752 mmHg 37%
    15:00 +21°C° 0.1 mm 4 mps 752 mmHg 39%
    16:00 +20°C° 1 mm 4 mps 752 mmHg 49%
    17:00 +19°C° 1 mm 3 mps 753 mmHg 59%
    18:00 +17°C° 1 mm 3 mps 753 mmHg 70%
    19:00 +17°C° 0.4 mm 2 mps 753 mmHg 71%
    20:00 +17°C° 0.4 mm 2 mps 753 mmHg 73%
    21:00 +18°C° 0.4 mm 1 mps 753 mmHg 74%
    22:00 +17°C° 0.3 mm 2 mps 753 mmHg 76%
    23:00 +17°C° 0.3 mm 2 mps 752 mmHg 77%

    25 November, Sunday

    Time Temperature Precipitation Wind Pressure Humidity
    00:00 +17°C° 0.3 mm 2 mps 752 mmHg 78%
    01:00 +16°C° 0.6 mm 2 mps 751 mmHg 81%
    02:00 +16°C° 0.6 mm 2 mps 751 mmHg 83%
    03:00 +16°C° 0.6 mm 2 mps 751 mmHg 86%
    04:00 +16°C° 0.1 mm 2 mps 751 mmHg 85%
    05:00 +16°C° 0.1 mm 2 mps 751 mmHg 85%
    06:00 +16°C° 0.1 mm 2 mps 751 mmHg 85%
    07:00 +16°C° 0 mm 2 mps 752 mmHg 80%
    08:00 +17°C° 0 mm 3 mps 752 mmHg 75%
    09:00 +18°C° 0 mm 4 mps 752 mmHg 69%
    10:00 +19°C° 0 mm 4 mps 752 mmHg 62%
    11:00 +20°C° 0 mm 5 mps 752 mmHg 55%
    12:00 +21°C° 0 mm 5 mps 752 mmHg 48%
    13:00 +21°C° 0 mm 5 mps 752 mmHg 46%
    14:00 +21°C° 0 mm 5 mps 751 mmHg 43%
    15:00 +21°C° 0 mm 5 mps 751 mmHg 41%
    16:00 +20°C° 0 mm 5 mps 751 mmHg 44%
    17:00 +19°C° 0 mm 4 mps 752 mmHg 47%
    18:00 +18°C° 0 mm 4 mps 752 mmHg 50%
    19:00 +18°C° 0 mm 4 mps 753 mmHg 51%
    20:00 +18°C° 0 mm 3 mps 753 mmHg 53%
    21:00 +18°C° 0 mm 3 mps 753 mmHg 54%
    22:00 +17°C° 0 mm 3 mps 753 mmHg 57%
    23:00 +17°C° 0 mm 3 mps 753 mmHg 59%

    26 November, Monday

    Time Temperature Precipitation Wind Pressure Humidity
    00:00 +17°C° 0 mm 3 mps 753 mmHg 61%
    01:00 +16°C° 0 mm 3 mps 753 mmHg 63%
    02:00 +16°C° 0 mm 3 mps 753 mmHg 66%
    03:00 +16°C° 0 mm 3 mps 753 mmHg 69%
    04:00 +14°C° 0 mm 3 mps 753 mmHg 70%
    05:00 +14°C° 0 mm 3 mps 753 mmHg 71%
    06:00 +14°C° 0 mm 3 mps 753 mmHg 72%
    07:00 +16°C° 0 mm 3 mps 753 mmHg 68%
    08:00 +17°C° 0 mm 4 mps 754 mmHg 64%
    09:00 +18°C° 0 mm 4 mps 754 mmHg 59%
    10:00 +19°C° 0 mm 4 mps 754 mmHg 56%
    11:00 +20°C° 0 mm 4 mps 753 mmHg 53%
    12:00 +21°C° 0 mm 4 mps 753 mmHg 50%
    13:00 +22°C° 0 mm 4 mps 753 mmHg 49%
    14:00 +22°C° 0 mm 4 mps 753 mmHg 48%
    15:00 +22°C° 0 mm 4 mps 753 mmHg 48%
    16:00 +21°C° 0 mm 3 mps 753 mmHg 51%
    17:00 +20°C° 0 mm 3 mps 753 mmHg 55%
    18:00 +20°C° 0 mm 3 mps 754 mmHg 59%
    19:00 +19°C° 0 mm 2 mps 754 mmHg 60%
    20:00 +19°C° 0 mm 2 mps 754 mmHg 62%
    21:00 +19°C° 0 mm 2 mps 754 mmHg 63%
    22:00 +18°C° 0 mm 2 mps 754 mmHg 64%
    23:00 +18°C° 0 mm 2 mps 754 mmHg 66%
    Show more